| time (UTC) | temp F | wind direction | speed MPH | gust MPH | rain 1hr in | rain 24hr in | rain mn in | humidity % | barometer mb |
| 20260510125004 | 63 | 195 | 3.0 | 8.0 | 0.00 | 0.00 | 0.00 | 100 | |
| 20260510123003 | 58 | 45 | 1.0 | 11.0 | 0.00 | 0.00 | 0.00 | 100 | |
| 20260510121002 | 58 | 282 | 1.0 | 6.0 | 0.00 | 0.00 | 0.00 | 100 | |
| 20260510115001 | 58 | 295 | 6.0 | 8.0 | 0.00 | 0.00 | 0.00 | 100 | |
| 20260510112959 | 57 | 293 | 4.0 | 9.0 | 0.00 | 0.00 | 0.00 | 100 | |
| 20260510110958 | 57 | 343 | 0.0 | 5.0 | 0.00 | 0.00 | 0.00 | 100 | |
| 20260510104957 | 55 | 320 | 5.0 | 8.0 | 0.00 | 0.00 | 0.00 | 100 | |
| 20260510102956 | 55 | 322 | 3.0 | 6.0 | 0.00 | 0.00 | 0.00 | 100 | |
| 20260510100955 | 55 | 285 | 0.0 | 6.0 | 0.00 | 0.00 | 0.00 | 100 | |
| 20260510094954 | 52 | 343 | 3.0 | 5.0 | 0.00 | 0.00 | 0.00 | 100 | |
| 20260510092952 | 50 | 358 | 4.0 | 6.0 | 0.00 | 0.00 | 0.00 | 100 | |
| 20260510090951 | 51 | 357 | 0.0 | 6.0 | 0.00 | 0.00 | 0.00 | 100 | |
| 20260510084950 | 50 | 303 | 2.0 | 5.0 | 0.00 | 0.00 | 0.00 | 100 | |
| 20260510082949 | 50 | 347 | 2.0 | 6.0 | 0.00 | 0.00 | 0.00 | 100 | |
| 20260510080948 | 48 | 336 | 3.0 | 5.0 | 0.00 | 0.00 | 0.00 | 100 | |
| 20260510074947 | 47 | 343 | 4.0 | 5.0 | 0.00 | 0.00 | 0.00 | 100 | |
| 20260510072946 | 47 | 303 | 1.0 | 5.0 | 0.00 | 0.00 | 0.00 | 100 | |
| 20260510070944 | 45 | 306 | 2.0 | 4.0 | 0.00 | 0.00 | 0.00 | 100 | |
| 20260510064943 | 44 | 351 | 0.0 | 4.0 | 0.00 | 0.00 | 0.00 | 100 | |
| 20260510062942 | 40 | 66 | 0.0 | 0.0 | 0.00 | 0.00 | 0.00 | 100 | |
| 20260510060941 | 39 | 66 | 0.0 | 0.0 | 0.00 | 0.00 | 0.00 | 100 | |
| 20260510054940 | 36 | 66 | 0.0 | 0.0 | 0.00 | 0.00 | 0.00 | 100 | |
| 20260510052939 | 35 | 160 | 1.0 | 1.0 | 0.00 | 0.00 | 0.00 | 100 | |
| 20260510050938 | 33 | 150 | 1.0 | 1.0 | 0.00 | 0.00 | 0.00 | 100 | |
| 20260510044936 | 32 | 118 | 0.0 | 0.0 | 0.00 | 0.00 | 0.00 | 100 | |
| 20260510042935 | 30 | 118 | 0.0 | 0.0 | 0.00 | 0.00 | 0.00 | 100 | |
| 20260510040934 | 29 | 118 | 0.0 | 0.0 | 0.00 | 0.00 | 0.00 | 100 | |
| 20260510034933 | 29 | 118 | 0.0 | 0.0 | 0.00 | 0.00 | 0.00 | 100 | |
| 20260510032932 | 29 | 118 | 0.0 | 0.0 | 0.00 | 0.00 | 0.00 | 100 | |
| 20260510030931 | 30 | 123 | 0.0 | 1.0 | 0.00 | 0.00 | 0.00 | 100 | |
| 20260510024929 | 30 | 102 | 0.0 | 0.0 | 0.00 | 0.00 | 0.00 | 100 | |
| 20260510022928 | 30 | 102 | 0.0 | 0.0 | 0.00 | 0.00 | 0.00 | 100 | |
| 20260510020927 | 31 | 102 | 0.0 | 0.0 | 0.00 | 0.00 | 0.00 | 100 | |
| 20260510014926 | 32 | 102 | 0.0 | 0.0 | 0.00 | 0.00 | 0.00 | 100 | |
| 20260510012925 | 33 | 102 | 0.0 | 0.0 | 0.00 | 0.00 | 0.00 | 100 | |
| 20260510010924 | 33 | 113 | 2.0 | 5.0 | 0.00 | 0.00 | 0.00 | 100 | |
| 20260510004923 | 32 | 94 | 0.0 | 0.0 | 0.00 | 0.00 | 0.00 | 100 | |
| 20260510002921 | 32 | 84 | 0.0 | 0.0 | 0.00 | 0.00 | 0.00 | 100 | |
| 20260510000920 | 31 | 232 | 0.0 | 0.0 | 0.00 | 0.00 | 0.00 | 100 | |
| 20260509234919 | 31 | 232 | 0.0 | 0.0 | 0.00 | 0.00 | 0.00 | 100 | |
| 20260509232918 | 32 | 232 | 0.0 | 0.0 | 0.00 | 0.00 | 0.00 | 100 | |
| 20260509230917 | 32 | 232 | 0.0 | 0.0 | 0.00 | 0.00 | 0.00 | 100 | |
| 20260509224916 | 32 | 232 | 0.0 | 0.0 | 0.00 | 0.00 | 0.00 | 100 | |
| 20260509222915 | 33 | 232 | 0.0 | 0.0 | 0.00 | 0.00 | 0.00 | 100 | |
| 20260509220913 | 33 | 232 | 0.0 | 0.0 | 0.00 | 0.00 | 0.00 | 100 | |
| 20260509214912 | 34 | 232 | 0.0 | 0.0 | 0.00 | 0.00 | 0.00 | 100 | |
| 20260509212911 | 34 | 232 | 0.0 | 0.0 | 0.00 | 0.00 | 0.00 | 100 | |
| 20260509204909 | 35 | 232 | 0.0 | 0.0 | 0.00 | 0.00 | 0.00 | 100 | |
| 20260509202908 | 35 | 232 | 0.0 | 0.0 | 0.00 | 0.00 | 0.00 | 100 | |
| 20260509200907 | 36 | 232 | 0.0 | 0.0 | 0.00 | 0.00 | 0.00 | 100 | |
| 20260509194905 | 37 | 232 | 0.0 | 0.0 | 0.00 | 0.00 | 0.00 | 100 | |
| 20260509192904 | 39 | 232 | 0.0 | 0.0 | 0.00 | 0.00 | 0.00 | 100 | |
| 20260509190903 | 39 | 84 | 0.0 | 2.0 | 0.00 | 0.00 | 0.00 | 100 | |
| 20260509184902 | 41 | 106 | 2.0 | 4.0 | 0.00 | 0.00 | 0.00 | 100 | |
| 20260509180900 | 43 | 291 | 0.0 | 0.0 | 0.00 | 0.00 | 0.00 | 100 | |
| 20260509174858 | 46 | 291 | 0.0 | 0.0 | 0.00 | 0.00 | 0.00 | 100 | |
| 20260509172857 | 46 | 261 | 0.0 | 3.0 | 0.00 | 0.00 | 0.00 | 100 | |
| 20260509170856 | 45 | 309 | 2.0 | 2.0 | 0.00 | 0.00 | 0.00 | 100 | |
| 20260509164856 | 47 | 307 | 2.0 | 5.0 | 0.00 | 0.00 | 0.00 | 100 | |
| 20260509162854 | 46 | 333 | 0.0 | 0.0 | 0.00 | 0.00 | 0.00 | 100 | |
| 20260509160853 | 46 | 333 | 0.0 | 0.0 | 0.00 | 0.00 | 0.00 | 100 | |
| 20260509154852 | 46 | 333 | 0.0 | 0.0 | 0.00 | 0.00 | 0.00 | 100 | |
| 20260509152850 | 45 | 344 | 1.0 | 2.0 | 0.00 | 0.00 | 0.00 | 100 | |
| 20260509150849 | 47 | 88 | 0.0 | 0.0 | 0.00 | 0.00 | 0.00 | 100 | |
| 20260509144848 | 47 | 278 | 0.0 | 0.0 | 0.00 | 0.00 | 0.00 | 100 | |
| 20260509142847 | 45 | 330 | 0.0 | 5.0 | 0.00 | 0.00 | 0.00 | 100 | |
| 20260509140846 | 48 | 185 | 1.0 | 5.0 | 0.00 | 0.00 | 0.00 | 100 | |
| 20260509134845 | 48 | 313 | 2.0 | 4.0 | 0.00 | 0.00 | 0.00 | 100 | |
| 20260509132844 | 51 | 322 | 4.0 | 5.0 | 0.00 | 0.00 | 0.00 | 100 | |
| 20260509130842 | 50 | 322 | 3.0 | 6.0 | 0.00 | 0.00 | 0.00 | 100 |